Location: ??????????
(48.4699°N, 37.9573°E)
Time: 12:31:34
(UTC+00:00)

MOS 1 Rocket - Pass Details

Date: 20 January 2021
Orbit: 614 x 830 km, 97.4° (Epoch: 26 February)

Event Time Altitude Azimuth Distance (km) Brightness Sun altitude
Exits shadow 15:22:19 - 20° (NNE) 2,615 5.9 -12.1°
Reaches altitude 10° 15:23:51 10° 26° (NNE) 2,008 5.3 -12.3°
Maximum altitude 15:27:59 41° 97° (E) 895 3.4 -13.0°
Drops below altitude 10° 15:32:01 10° 169° (SSE) 1,970 5.7 -13.6°
Sets 15:34:17 0° 176° (S) 2,876 6.6 -14.0°
